QPF
0.00 0.00 0.00 0.00 0.00 0.00 0.00 0.00 0.00 0.00 0.00 0.00 0.00 0.00 0.00 0.00 0.00 0.00 0.00 0.00 0.00 0.00 0.00 0.00 0.00 0.00 0.00 0.00 0.00 0.00 0.00 0.00 0.00 0.00 0.00 0.00 0.00 0.00 0.00 0.00 0.00 0.00 0.00
0.00 0.00 0.00 0.00 0.00 0.00 0.00 0.00 0.00 0.00 0.00 0.00 0.00 0.00 0.00 0.00 0.00 0.00 0.00 0.00 0.00 0.00 0.00 0.00 0.00 0.00 0.00 0.00 0.00 0.00 0.00 0.00 0.00 0.00 0.00 0.00 0.00 0.00 0.00 0.00 0.00 0.00 0.00
0.00 0.00 0.00 0.00 0.00 0.00 0.00 0.00 0.00 0.00 0.00 0.00 0.00 0.00 0.00 0.00 0.01 0.00 0.01 0.01 0.00 0.00 0.00 0.00 0.00 0.00 0.00 0.00 0.00 0.00 0.00 0.00 0.00 0.00 0.00 0.00 0.00 0.00 0.00 0.00 0.00 0.00 0.00
0.00 0.00 0.00 0.00 0.00 0.00 0.00 0.00 0.00 0.00 0.00 0.00 0.00 0.00 0.00 0.00 0.02 0.01 0.06 0.08 0.05 0.00 0.00 0.00 0.00 0.00 0.00 0.00 0.00 0.00 0.00 0.00 0.00 0.00 0.00 0.00 0.00 0.00 0.00 0.00 0.00 0.00 0.00
0.00 0.00 0.00 0.00 0.00 0.00 0.00 0.00 0.00 0.00 0.00 0.00 0.00 0.00 0.00 0.00 0.03 0.02 0.12 0.14 0.10 0.01 0.01 0.02 0.01 0.01 0.00 0.00 0.00 0.00 0.00 0.00 0.00 0.00 0.00 0.00 0.00 0.00 0.00 0.00 0.00 0.00 0.00
0.00 0.00 0.00 0.00 0.00 0.00 0.00 0.00 0.00 0.00 0.00 0.00 0.00 0.00 0.00 0.03 0.30 0.13 0.18 0.15 0.02 0.00 0.03 0.05 0.01 0.00 0.00 0.00 0.00 0.00 0.00 0.00 0.00 0.00 0.00 0.00 0.00 0.00 0.00 0.00 0.00 0.00 0.00
0.00 0.00 0.00 0.00 0.00 0.00 0.00 0.00 0.00 0.00 0.00 0.00 0.00 0.00 0.00 0.03 0.22 0.19 0.16 0.13 0.01 0.00 0.01 0.00 0.00 0.00 0.00 0.00 0.00 0.00 0.00 0.00 0.00 0.00 0.00 0.00 0.00 0.00 0.00 0.00 0.00 0.00 0.00
0.00 0.00 0.00 0.00 0.00 0.00 0.00 0.00 0.00 0.00 0.00 0.00 0.00 0.00 0.00 0.04 0.16 0.15 0.18 0.04 0.00 0.00 0.00 0.00 0.00 0.00 0.00 0.00 0.00 0.00 0.00 0.00 0.00 0.00 0.00 0.00 0.00 0.00 0.00 0.00 0.00 0.00 0.00
0.07 0.01 0.00 0.00 0.00 0.00 0.00 0.00 0.00 0.00 0.00 0.01 0.01 0.01 0.01 0.02 0.10 0.23 0.10 0.01 0.00 0.00 0.00 0.00 0.00 0.00 0.00 0.00 0.00 0.00 0.00 0.00 0.00 0.00 0.00 0.00 0.00 0.00 0.00 0.00 0.00 0.00 0.00
0.26 0.25 0.28 0.07 0.00 0.00 0.00 0.00 0.00 0.00 0.01 0.03 0.01 0.01 0.01 0.03 0.18 0.14 0.03 0.00 0.00 0.00 0.00 0.00 0.00 0.00 0.00 0.00 0.00 0.00 0.00 0.00 0.00 0.00 0.00 0.00 0.00 0.00 0.00 0.00 0.00 0.00 0.00
0.06 0.09 0.15 0.13 0.04 0.02 0.01 0.00 0.00 0.01 0.01 0.01 0.00 0.04 0.11 0.01 0.02 0.01 0.00 0.00 0.00 0.00 0.00 0.00 0.00 0.00 0.00 0.00 0.00 0.00 0.00 0.00 0.00 0.00 0.00 0.00 0.00 0.00 0.00 0.00 0.00 0.00 0.00
0.01 0.02 0.04 0.04 0.01 0.00 0.02 0.01 0.02 0.02 0.00 0.01 0.00 0.00 0.03 0.00 0.00 0.00 0.00 0.00 0.00 0.00 0.00 0.00 0.00 0.00 0.00 0.00 0.00 0.00 0.00 0.00 0.00 0.00 0.00 0.00 0.00 0.00 0.00 0.00 0.00 0.00 0.00
0.02 0.01 0.01 0.03 0.03 0.00 0.01 0.00 0.00 0.00 0.00 0.00 0.00 0.01 0.01 0.02 0.01 0.00 0.00 0.01 0.00 0.01 0.00 0.00 0.00 0.01 0.00 0.00 0.00 0.00 0.00 0.00 0.00 0.00 0.00 0.00 0.00 0.00 0.00 0.00 0.00 0.00 0.00
0.04 0.01 0.01 0.01 0.02 0.01 0.00 0.00 0.00 0.00 0.00 0.00 0.00 0.01 0.01 0.01 0.00 0.00 0.01 0.01 0.03 0.01 0.00 0.00 0.01 0.02 0.01 0.00 0.00 0.00 0.00 0.00 0.00 0.00 0.00 0.00 0.00 0.00 0.00 0.00 0.00 0.00 0.00
0.10 0.01 0.01 0.00 0.01 0.01 0.00 0.00 0.00 0.00 0.00 0.00 0.00 0.01 0.00 0.00 0.01 0.01 0.00 0.00 0.02 0.02 0.00 0.00 0.02 0.06 0.02 0.00 0.00 0.00 0.00 0.00 0.00 0.00 0.00 0.00 0.00 0.00 0.00 0.00 0.00 0.00 0.00
0.08 0.07 0.01 0.00 0.00 0.00 0.00 0.00 0.00 0.00 0.00 0.00 0.00 0.00 0.00 0.00 0.00 0.00 0.00 0.00 0.00 0.00 0.00 0.01 0.02 0.02 0.01 0.00 0.00 0.00 0.00 0.00 0.00 0.00 0.00 0.00 0.00 0.00 0.00 0.00 0.00 0.00 0.00
0.04 0.06 0.00 0.00 0.00 0.00 0.00 0.00 0.00 0.00 0.00 0.00 0.00 0.00 0.00 0.00 0.00 0.00 0.00 0.01 0.00 0.00 0.00 0.01 0.03 0.03 0.02 0.00 0.00 0.00 0.00 0.00 0.00 0.00 0.00 0.00 0.00 0.00 0.00 0.00 0.00 0.00 0.00
0.02 0.03 0.00 0.00 0.00 0.00 0.00 0.00 0.00 0.00 0.00 0.00 0.00 0.00 0.00 0.00 0.00 0.00 0.00 0.00 0.00 0.02 0.04 0.04 0.03 0.02 0.01 0.00 0.00 0.00 0.00 0.00 0.00 0.00 0.00 0.00 0.00 0.00 0.00 0.00 0.00 0.00 0.00
0.00 0.00 0.00 0.00 0.00 0.00 0.00 0.00 0.00 0.00 0.00 0.00 0.00 0.00 0.00 0.00 0.00 0.00 0.01 0.01 0.03 0.07 0.06 0.05 0.02 0.01 0.00 0.00 0.00 0.00 0.00 0.00 0.00 0.00 0.00 0.00 0.00 0.00 0.00 0.00 0.00 0.00 0.00
0.00 0.01 0.00 0.00 0.00 0.00 0.00 0.00 0.00 0.00 0.00 0.00 0.00 0.00 0.00 0.00 0.00 0.00 0.00 0.00 0.02 0.04 0.04 0.04 0.02 0.00 0.00 0.01 0.00 0.00 0.00 0.00 0.00 0.00 0.00 0.00 0.00 0.00 0.00 0.00 0.00 0.00 0.00
0.00 0.00 0.00 0.00 0.00 0.00 0.00 0.00 0.00 0.00 0.00 0.00 0.00 0.01 0.01 0.00 0.00 0.00 0.00 0.00 0.02 0.03 0.03 0.02 0.01 0.00 0.00 0.00 0.00 0.00 0.00 0.00 0.00 0.00 0.00 0.00 0.00 0.00 0.00 0.00 0.00 0.00 0.00
0.00 0.00 0.00 0.00 0.00 0.00 0.01 0.00 0.00 0.00 0.00 0.00 0.00 0.01 0.04 0.00 0.00 0.00 0.00 0.00 0.00 0.02 0.03 0.01 0.00 0.00 0.00 0.00 0.00 0.00 0.00 0.00 0.00 0.00 0.00 0.00 0.00 0.00 0.00 0.00 0.00 0.00 0.00
0.00 0.00 0.00 0.00 0.00 0.06 0.05 0.00 0.00 0.00 0.00 0.00 0.00 0.01 0.05 0.00 0.00 0.00 0.00 0.00 0.00 0.03 0.03 0.02 0.02 0.01 0.00 0.00 0.00 0.00 0.00 0.00 0.00 0.00 0.00 0.00 0.00 0.00 0.00 0.00 0.00 0.00 0.00
0.00 0.00 0.00 0.00 0.00 0.00 0.00 0.00 0.00 0.00 0.00 0.00 0.00 0.00 0.00 0.00 0.00 0.00 0.00 0.00 0.00 0.00 0.00 0.02 0.01 0.00 0.00 0.00 0.00 0.00 0.00 0.00 0.00 0.00 0.00 0.00 0.00 0.00 0.00 0.00 0.00 0.00 0.00
0.00 0.00 0.00 0.00 0.00 0.00 0.00 0.00 0.00 0.00 0.00 0.00 0.00 0.00 0.00 0.00 0.00 0.00 0.00 0.00 0.00 0.00 0.00 0.00 0.00 0.00 0.00 0.00 0.00 0.00 0.00 0.00 0.00 0.00 0.00 0.00 0.00 0.00 0.00 0.00 0.00 0.00 0.00
0.00 0.00 0.00 0.00 0.00 0.00 0.00 0.00 0.00 0.00 0.00 0.00 0.00 0.00 0.00 0.00 0.02 0.02 0.03 0.04 0.02 0.01 0.00 0.00 0.00 0.00 0.00 0.00 0.00 0.00 0.00 0.00 0.00 0.00 0.00 0.00 0.00 0.00 0.00 0.00 0.00 0.00 0.00
MSLP
1010.57 1011.10 1011.86 1012.41 1012.98 1013.55 1013.63 1013.77 1014.06 1014.24 1014.39 1014.95 1015.19 1015.42 1015.61 1015.91 1016.30 1016.56 1016.57 1016.78 1017.08 1017.12 1017.33 1017.64 1018.02 1018.26 1017.91 1017.69 1017.76 1017.89 1017.69 1017.67 1017.44 1017.46 1018.17 1019.28 1020.02 1020.34 1020.18 1020.45 1020.44 1020.27 1021.31
1009.91 1010.62 1011.22 1011.79 1012.24 1012.56 1013.05 1013.23 1013.51 1013.82 1014.09 1014.41 1014.84 1015.07 1015.24 1015.45 1015.83 1016.21 1016.36 1016.08 1016.65 1016.76 1017.01 1017.41 1017.81 1018.04 1018.46 1018.52 1018.54 1018.93 1018.79 1018.83 1018.72 1018.32 1018.94 1019.89 1020.34 1020.34 1020.31 1020.65 1020.32 1019.71 1020.20
1009.32 1009.98 1010.47 1011.03 1011.32 1011.59 1011.79 1012.29 1012.71 1013.15 1013.53 1013.78 1014.28 1014.62 1014.80 1014.98 1015.32 1015.75 1015.92 1015.93 1016.46 1016.73 1016.92 1017.37 1017.51 1017.58 1018.34 1018.35 1018.87 1018.81 1018.98 1019.06 1018.92 1018.82 1019.46 1019.71 1019.60 1020.11 1020.58 1020.65 1020.56 1020.25 1020.17
1008.37 1008.98 1009.46 1009.97 1010.37 1010.59 1010.83 1011.28 1011.67 1012.24 1012.79 1013.22 1013.39 1013.78 1014.22 1014.54 1014.77 1015.21 1015.64 1016.24 1016.46 1016.42 1016.64 1016.99 1017.19 1017.79 1017.69 1018.44 1018.83 1019.09 1019.21 1019.28 1019.29 1019.07 1018.60 1018.95 1019.52 1020.03 1020.25 1019.85 1019.91 1019.95 1019.77
1008.13 1008.35 1008.56 1008.82 1009.23 1009.74 1010.05 1010.45 1010.93 1011.32 1011.93 1012.45 1012.85 1013.21 1013.65 1013.93 1014.24 1014.96 1015.86 1016.65 1017.41 1017.04 1017.20 1016.78 1017.56 1017.69 1018.24 1018.26 1018.60 1018.92 1019.11 1019.17 1019.11 1018.99 1018.34 1018.39 1018.88 1019.28 1019.68 1019.54 1019.63 1019.64 1019.87
1008.30 1008.61 1008.74 1008.87 1008.96 1009.00 1009.45 1009.96 1010.45 1010.91 1011.38 1011.82 1012.28 1012.76 1013.19 1013.32 1013.79 1014.56 1015.66 1016.16 1015.75 1016.27 1016.87 1017.41 1017.69 1017.84 1018.23 1018.50 1018.72 1019.03 1019.01 1019.28 1019.30 1018.58 1018.21 1018.40 1019.14 1019.23 1019.44 1019.70 1019.58 1019.39 1019.13
1009.28 1009.61 1009.66 1009.77 1009.78 1009.54 1009.33 1009.46 1009.89 1010.27 1010.66 1010.89 1011.19 1011.78 1012.25 1013.62 1013.86 1014.33 1014.60 1015.12 1015.17 1015.18 1015.75 1016.61 1017.99 1017.56 1018.33 1018.61 1018.69 1019.29 1019.35 1019.57 1019.75 1019.34 1019.01 1018.95 1019.23 1019.69 1020.08 1020.12 1019.83 1019.86 1019.81
1009.48 1009.63 1009.70 1009.63 1009.67 1009.79 1009.88 1009.64 1009.51 1009.81 1010.12 1010.46 1010.88 1011.27 1012.23 1013.40 1013.75 1014.19 1014.07 1012.90 1014.16 1016.48 1015.93 1016.48 1017.04 1017.61 1017.82 1018.42 1018.66 1019.01 1019.27 1019.45 1019.67 1019.47 1019.21 1019.52 1019.62 1019.94 1020.39 1020.40 1020.34 1020.16 1019.89
1011.79 1010.80 1009.96 1009.92 1009.63 1009.48 1009.39 1009.36 1009.13 1009.19 1009.45 1009.87 1010.25 1011.34 1012.07 1012.65 1013.34 1013.77 1015.08 1015.63 1015.02 1015.81 1016.22 1015.89 1016.54 1017.35 1017.66 1018.21 1018.60 1018.83 1019.00 1019.03 1019.76 1020.02 1020.01 1020.11 1020.44 1020.57 1020.79 1020.47 1019.77 1019.65 1018.81
1011.50 1010.89 1010.11 1008.98 1009.65 1009.33 1009.06 1009.00 1008.84 1008.83 1008.86 1009.13 1010.24 1011.39 1012.24 1012.38 1013.83 1014.64 1015.44 1015.42 1015.29 1015.42 1015.91 1015.95 1016.32 1017.11 1017.31 1018.12 1018.45 1018.56 1018.68 1018.76 1018.84 1019.57 1019.78 1019.92 1020.28 1020.18 1020.75 1020.77 1020.24 1019.57 1018.93
1012.37 1014.28 1011.16 1008.13 1008.81 1008.74 1009.09 1008.83 1008.90 1008.90 1009.04 1009.89 1010.69 1011.64 1012.19 1012.68 1013.86 1014.78 1015.52 1015.43 1015.05 1015.27 1015.44 1015.50 1015.67 1016.68 1017.12 1017.73 1018.46 1018.26 1018.53 1018.63 1018.80 1019.18 1019.06 1018.85 1019.18 1019.06 1019.15 1019.68 1019.62 1019.52 1019.33
1012.08 1012.32 1012.12 1011.48 1010.98 1009.41 1010.37 1009.35 1009.44 1009.61 1010.15 1010.94 1011.58 1012.27 1012.70 1013.27 1013.96 1014.86 1015.51 1015.76 1015.59 1015.21 1014.74 1014.98 1015.42 1016.42 1017.17 1017.68 1018.31 1018.70 1018.56 1018.64 1018.28 1018.51 1018.16 1017.92 1017.71 1017.89 1017.94 1018.39 1018.83 1019.01 1019.30
1010.96 1010.59 1011.18 1011.49 1010.33 1011.20 1011.20 1010.05 1010.11 1010.46 1011.03 1011.68 1012.02 1012.45 1012.84 1013.37 1013.63 1014.33 1014.88 1015.30 1015.62 1015.50 1014.59 1015.07 1015.37 1016.52 1017.12 1017.68 1018.43 1018.73 1018.69 1018.57 1017.92 1017.63 1017.70 1017.55 1017.55 1017.70 1018.34 1018.46 1018.56 1018.85 1019.22
1011.06 1010.99 1012.00 1011.80 1011.32 1011.13 1010.37 1009.74 1010.35 1010.94 1011.61 1012.09 1012.39 1012.80 1012.98 1013.42 1013.75 1014.26 1014.52 1014.94 1015.21 1015.31 1015.53 1015.52 1015.85 1016.61 1017.31 1017.60 1018.27 1018.62 1018.43 1018.08 1017.69 1017.37 1017.45 1017.53 1017.36 1017.51 1017.58 1017.83 1018.05 1018.34 1018.36
1010.47 1010.88 1011.02 1011.08 1010.94 1010.65 1010.07 1010.37 1010.34 1011.28 1011.60 1012.19 1012.43 1012.50 1012.84 1013.32 1013.73 1014.03 1014.23 1014.43 1014.55 1015.13 1015.58 1016.06 1016.49 1016.99 1017.19 1017.16 1017.27 1017.54 1017.78 1017.65 1017.67 1017.70 1017.65 1017.45 1017.15 1017.20 1017.41 1017.56 1017.71 1017.92 1018.02
1009.94 1009.58 1009.23 1009.78 1009.29 1009.21 1009.58 1010.62 1011.33 1011.67 1012.08 1012.32 1012.54 1012.46 1012.54 1013.13 1013.37 1013.62 1013.84 1014.05 1014.22 1015.05 1015.57 1015.84 1016.44 1016.73 1016.70 1016.44 1016.40 1016.59 1016.83 1017.09 1017.14 1017.31 1017.25 1017.06 1017.02 1017.14 1017.20 1017.34 1017.68 1017.66 1017.93
1009.41 1009.22 1008.75 1008.94 1008.54 1008.75 1009.04 1009.34 1010.39 1012.05 1011.92 1012.27 1012.62 1013.07 1013.26 1013.48 1013.48 1013.63 1013.90 1014.08 1014.41 1015.15 1015.28 1015.63 1015.96 1016.21 1016.13 1015.64 1015.62 1016.01 1016.18 1016.27 1016.67 1016.93 1016.78 1016.88 1016.89 1017.24 1017.26 1017.06 1017.33 1017.61 1018.10
1009.06 1009.13 1008.74 1008.06 1008.03 1008.14 1008.27 1008.47 1008.78 1008.93 1010.20 1011.61 1012.78 1013.26 1013.58 1013.76 1013.83 1013.89 1014.06 1014.27 1015.05 1015.29 1015.17 1015.41 1015.73 1015.78 1015.54 1015.07 1015.52 1016.01 1016.03 1016.40 1016.53 1017.10 1017.16 1016.67 1016.84 1016.94 1017.03 1017.21 1017.22 1017.91 1018.52
1008.84 1008.23 1008.51 1008.01 1007.89 1008.31 1008.22 1008.44 1008.42 1008.54 1008.90 1009.25 1011.22 1012.58 1013.36 1014.02 1014.30 1014.33 1014.36 1014.34 1014.75 1014.96 1015.08 1015.27 1015.48 1015.34 1014.62 1015.15 1015.81 1016.53 1016.70 1017.23 1017.85 1017.02 1016.59 1016.56 1016.72 1016.95 1017.03 1017.11 1017.62 1018.23 1018.42
1008.44 1008.61 1008.67 1008.39 1008.00 1008.36 1008.14 1008.15 1007.96 1008.29 1008.58 1008.61 1008.88 1009.79 1012.14 1013.25 1013.45 1014.39 1014.48 1014.40 1014.74 1014.81 1015.09 1015.17 1014.86 1014.62 1015.30 1015.87 1016.48 1016.72 1017.37 1017.50 1017.04 1016.89 1016.62 1016.58 1016.84 1016.95 1016.81 1016.69 1016.92 1017.25 1017.54
1007.38 1007.43 1008.34 1008.27 1007.90 1007.34 1007.37 1007.79 1007.63 1008.04 1008.28 1008.23 1008.08 1008.89 1010.66 1011.51 1011.61 1012.25 1013.34 1014.09 1014.42 1014.66 1014.71 1014.81 1014.97 1015.34 1015.87 1016.40 1016.89 1017.17 1017.40 1016.53 1016.51 1016.58 1016.58 1016.64 1016.75 1016.78 1017.09 1017.00 1017.15 1017.04 1017.31
1007.38 1007.31 1007.18 1007.23 1007.08 1007.15 1007.39 1007.65 1007.90 1007.98 1008.34 1008.07 1008.23 1010.15 1010.76 1010.48 1011.02 1011.47 1012.17 1013.28 1014.14 1014.57 1014.79 1015.16 1015.63 1015.79 1016.33 1016.75 1017.09 1017.33 1016.92 1016.16 1015.92 1016.35 1016.39 1016.55 1016.82 1016.89 1016.99 1017.12 1017.16 1017.04 1017.38
1007.22 1006.80 1006.66 1006.80 1006.65 1007.61 1007.83 1007.89 1007.85 1007.71 1008.04 1007.90 1008.21 1009.68 1010.48 1010.10 1010.61 1011.09 1012.01 1013.13 1014.30 1014.73 1015.31 1015.43 1015.93 1016.31 1016.75 1016.96 1016.79 1016.50 1015.72 1015.62 1015.85 1016.09 1016.33 1016.53 1016.72 1016.86 1017.09 1017.05 1017.06 1017.01 1017.24
1006.90 1006.41 1006.19 1006.50 1006.68 1007.40 1007.40 1007.36 1007.35 1007.98 1008.33 1008.26 1008.47 1008.51 1009.43 1009.74 1010.35 1011.03 1011.89 1013.08 1014.19 1014.92 1015.40 1015.77 1015.97 1016.30 1016.94 1015.84 1015.28 1015.45 1015.68 1015.91 1016.19 1016.40 1016.40 1016.54 1016.83 1017.51 1017.34 1017.29 1016.94 1017.23 1017.10
1006.10 1005.97 1006.33 1006.47 1006.58 1007.05 1007.21 1007.44 1007.63 1007.62 1007.67 1007.64 1008.20 1008.78 1009.28 1010.15 1010.63 1011.13 1012.00 1012.98 1014.10 1014.74 1015.36 1015.57 1015.70 1016.05 1016.16 1015.12 1015.27 1016.17 1016.94 1017.09 1016.86 1017.12 1016.80 1016.90 1017.12 1017.62 1017.39 1017.12 1017.30 1017.12 1017.19
1006.30 1006.34 1006.53 1006.66 1006.69 1007.13 1007.13 1007.08 1007.16 1007.22 1007.29 1007.38 1007.76 1008.83 1009.67 1010.71 1010.87 1011.64 1012.66 1013.48 1014.20 1014.73 1015.19 1015.31 1015.61 1015.60 1014.92 1015.27 1015.96 1017.49 1017.53 1017.69 1017.60 1017.72 1017.19 1017.27 1017.32 1017.19 1017.30 1017.40 1017.37 1017.00 1017.35
Thickness
5836 5834 5828 5825 5822 5819 5818 5818 5816 5816 5816 5811 5809 5806 5804 5800 5796 5791 5791 5788 5783 5782 5778 5772 5765 5762 5761 5759 5755 5750 5748 5746 5740 5744 5740 5729 5722 5716 5714 5709 5708 5708 5700
5839 5836 5832 5829 5827 5824 5820 5821 5821 5818 5818 5816 5811 5809 5807 5803 5799 5794 5791 5793 5785 5780 5775 5768 5761 5759 5751 5748 5744 5737 5736 5734 5728 5726 5724 5717 5712 5711 5710 5705 5705 5706 5702
5843 5838 5835 5831 5830 5829 5829 5827 5825 5822 5820 5819 5815 5810 5807 5806 5803 5798 5795 5791 5782 5777 5774 5766 5760 5755 5745 5744 5737 5735 5731 5729 5728 5725 5715 5715 5715 5710 5703 5700 5698 5698 5697
5848 5844 5840 5836 5835 5835 5835 5833 5830 5827 5823 5820 5820 5817 5812 5809 5805 5798 5792 5783 5778 5776 5773 5765 5757 5743 5743 5737 5732 5728 5726 5721 5718 5718 5722 5716 5709 5704 5701 5701 5698 5697 5695
5845 5845 5844 5845 5844 5841 5839 5836 5833 5832 5827 5824 5822 5820 5815 5812 5806 5798 5788 5778 5761 5757 5757 5755 5746 5737 5730 5733 5731 5727 5722 5719 5716 5713 5718 5718 5708 5704 5697 5699 5694 5693 5690
5842 5839 5842 5842 5843 5844 5841 5838 5836 5832 5829 5826 5822 5818 5813 5813 5804 5798 5786 5776 5774 5762 5758 5750 5742 5735 5731 5727 5724 5721 5721 5713 5709 5714 5714 5708 5699 5699 5697 5692 5690 5686 5684
5828 5826 5828 5828 5827 5833 5838 5838 5835 5831 5829 5827 5826 5821 5816 5805 5800 5794 5790 5782 5779 5772 5763 5752 5737 5740 5730 5727 5723 5713 5711 5706 5701 5704 5701 5700 5694 5688 5685 5681 5682 5679 5675
5821 5822 5824 5826 5826 5826 5826 5830 5832 5831 5828 5826 5822 5820 5811 5803 5798 5790 5787 5789 5775 5761 5760 5750 5745 5736 5733 5722 5719 5712 5707 5702 5696 5697 5697 5692 5688 5683 5676 5673 5671 5670 5670
5789 5802 5813 5819 5822 5824 5824 5826 5830 5830 5828 5824 5823 5812 5790 5798 5793 5789 5776 5763 5771 5760 5753 5751 5747 5736 5729 5721 5715 5709 5704 5700 5694 5690 5689 5685 5678 5675 5669 5668 5669 5666 5668
5785 5784 5804 5817 5814 5816 5822 5825 5826 5827 5827 5821 5813 5807 5792 5795 5780 5775 5768 5763 5760 5756 5751 5746 5742 5735 5728 5718 5712 5707 5700 5697 5695 5685 5684 5681 5674 5671 5665 5659 5660 5658 5660
5774 5751 5797 5773 5805 5815 5813 5817 5818 5817 5817 5798 5803 5797 5794 5787 5773 5765 5757 5756 5756 5750 5746 5746 5744 5731 5723 5714 5706 5705 5698 5695 5689 5682 5680 5679 5674 5672 5668 5662 5658 5655 5650
5762 5767 5769 5777 5782 5801 5783 5804 5803 5802 5797 5791 5786 5781 5780 5776 5770 5757 5748 5743 5743 5744 5747 5745 5739 5725 5716 5709 5701 5694 5692 5687 5687 5679 5678 5677 5677 5673 5670 5663 5658 5652 5645
5764 5770 5764 5770 5784 5772 5774 5788 5787 5785 5781 5776 5774 5769 5765 5763 5764 5755 5747 5742 5736 5735 5742 5735 5729 5716 5708 5701 5692 5686 5683 5682 5681 5678 5673 5672 5672 5668 5658 5655 5651 5645 5638
5748 5751 5749 5749 5763 5769 5777 5784 5778 5774 5768 5765 5761 5756 5753 5749 5748 5744 5739 5735 5730 5728 5722 5721 5717 5708 5701 5697 5686 5680 5680 5679 5676 5674 5669 5668 5667 5661 5657 5653 5646 5641 5637
5740 5741 5745 5750 5755 5761 5769 5768 5771 5764 5763 5758 5755 5750 5743 5738 5739 5737 5734 5731 5729 5722 5715 5708 5703 5697 5693 5691 5688 5683 5678 5675 5669 5665 5662 5660 5659 5655 5649 5647 5643 5636 5627
5739 5747 5757 5754 5762 5766 5764 5756 5748 5747 5743 5742 5740 5743 5744 5736 5735 5732 5728 5726 5721 5710 5703 5699 5692 5689 5686 5688 5687 5682 5677 5671 5667 5662 5659 5656 5651 5647 5644 5640 5633 5628 5620
5740 5747 5755 5754 5761 5759 5758 5757 5750 5737 5736 5732 5730 5727 5725 5724 5723 5720 5717 5713 5707 5699 5696 5691 5687 5684 5683 5689 5686 5679 5673 5671 5665 5659 5656 5649 5646 5639 5636 5634 5628 5620 5609
5745 5738 5750 5757 5757 5757 5757 5757 5758 5758 5748 5738 5722 5717 5712 5711 5711 5709 5706 5705 5694 5690 5690 5685 5681 5680 5681 5686 5678 5670 5667 5661 5656 5647 5644 5645 5640 5635 5630 5624 5620 5606 5594
5745 5752 5749 5754 5755 5750 5753 5751 5752 5751 5750 5750 5729 5716 5708 5699 5696 5695 5696 5697 5689 5686 5683 5680 5677 5676 5681 5675 5666 5658 5654 5648 5639 5643 5643 5640 5635 5629 5622 5617 5606 5592 5586
5743 5739 5738 5744 5749 5744 5747 5747 5748 5744 5743 5744 5743 5737 5713 5702 5701 5690 5687 5686 5681 5679 5676 5673 5675 5676 5669 5661 5653 5650 5643 5640 5640 5638 5636 5634 5627 5622 5618 5614 5608 5600 5594
5749 5750 5741 5742 5745 5750 5749 5742 5744 5739 5737 5736 5740 5734 5717 5710 5709 5702 5689 5680 5676 5674 5673 5671 5669 5665 5658 5650 5645 5639 5635 5640 5638 5633 5630 5626 5621 5616 5610 5607 5601 5599 5595
5745 5745 5747 5745 5748 5746 5742 5740 5737 5733 5730 5733 5733 5718 5704 5710 5706 5700 5690 5679 5672 5668 5665 5661 5657 5655 5649 5643 5636 5629 5631 5638 5638 5630 5625 5621 5615 5610 5606 5602 5599 5598 5592
5740 5743 5743 5741 5744 5730 5732 5731 5730 5731 5728 5731 5728 5715 5705 5707 5701 5694 5685 5675 5664 5660 5654 5652 5648 5643 5638 5634 5633 5634 5638 5637 5632 5626 5620 5615 5610 5606 5603 5601 5600 5597 5593
5738 5741 5741 5735 5736 5728 5729 5728 5730 5721 5721 5721 5719 5718 5709 5704 5697 5689 5682 5670 5659 5653 5648 5644 5640 5635 5629 5636 5638 5636 5633 5629 5624 5619 5615 5609 5605 5598 5600 5600 5601 5596 5594
5741 5739 5734 5732 5731 5727 5726 5724 5722 5722 5721 5721 5715 5711 5704 5694 5688 5682 5674 5666 5655 5650 5644 5639 5636 5631 5630 5637 5636 5628 5623 5619 5617 5613 5609 5606 5604 5598 5600 5602 5598 5597 5593
5734 5732 5729 5728 5726 5722 5722 5721 5720 5720 5719 5719 5716 5705 5695 5684 5680 5671 5662 5655 5649 5644 5641 5638 5634 5632 5636 5633 5628 5618 5616 5612 5610 5607 5606 5604 5602 5603 5601 5599 5597 5597 5591